| time (UTC) | temp F | wind direction | speed MPH | gust MPH | rain 1hr in | rain 24hr in | rain mn in | humidity % | barometer mb |
| 20260903000818 | 73 | 0.0 | 0.0 | 0.00 | 0.42 | 0.42 | 97 | 1017.0 | |
| 20260902235818 | 73 | 0.0 | 0.0 | 0.00 | 0.42 | 0.42 | 96 | 1016.9 | |
| 20260902234818 | 73 | 0.0 | 1.0 | 0.00 | 0.42 | 0.42 | 96 | 1016.9 | |
| 20260902233818 | 73 | 0.0 | 0.0 | 0.00 | 0.42 | 0.42 | 96 | 1016.9 | |
| 20260902232818 | 74 | 0.0 | 0.0 | 0.00 | 0.42 | 0.42 | 96 | 1017.2 | |
| 20260902231818 | 74 | 0.0 | 0.0 | 0.00 | 0.42 | 0.42 | 96 | 1017.2 | |
| 20260902230820 | 74 | 0.0 | 0.0 | 0.00 | 0.42 | 0.42 | 96 | 1017.1 | |
| 20260902225820 | 74 | 0.0 | 0.0 | 0.00 | 0.42 | 0.42 | 95 | 1016.9 | |
| 20260902224818 | 74 | 0.0 | 0.0 | 0.00 | 0.42 | 0.42 | 95 | 1017.0 | |
| 20260902223818 | 74 | 0.0 | 0.0 | 0.00 | 0.42 | 0.42 | 96 | 1016.9 | |
| 20260902222818 | 74 | 0.0 | 1.0 | 0.00 | 0.42 | 0.42 | 95 | 1017.0 | |
| 20260902221818 | 75 | 0.0 | 0.0 | 0.00 | 0.42 | 0.42 | 95 | 1017.3 | |
| 20260902220820 | 75 | 0.0 | 0.0 | 0.00 | 0.42 | 0.42 | 95 | 1017.6 | |
| 20260902215818 | 75 | 0.0 | 0.0 | 0.00 | 0.42 | 0.42 | 95 | 1017.6 | |
| 20260902214818 | 75 | 0.0 | 0.0 | 0.00 | 0.42 | 0.42 | 95 | 1017.3 | |
| 20260902213818 | 75 | 0.0 | 0.0 | 0.00 | 0.42 | 0.42 | 95 | 1017.3 | |
| 20260902212820 | 75 | 0.0 | 1.0 | 0.00 | 0.42 | 0.42 | 95 | 1017.1 | |
| 20260902211820 | 75 | 0.0 | 0.0 | 0.00 | 0.42 | 0.42 | 94 | 1017.0 | |
| 20260902210818 | 75 | 0.0 | 0.0 | 0.00 | 0.42 | 0.42 | 94 | 1017.3 | |
| 20260902205820 | 75 | 0.0 | 0.0 | 0.00 | 0.42 | 0.42 | 94 | 1017.3 | |
| 20260902204820 | 75 | 0.0 | 0.0 | 0.00 | 0.42 | 0.42 | 93 | 1017.4 | |
| 20260902203820 | 75 | 0.0 | 0.0 | 0.00 | 0.42 | 0.42 | 93 | 1017.6 | |
| 20260902202840 | 75 | 0.0 | 0.0 | 0.00 | 0.42 | 0.42 | 93 | 1017.5 | |
| 20260902201820 | 75 | 0.0 | 0.0 | 0.00 | 0.42 | 0.42 | 93 | 1017.7 | |
| 20260902200818 | 75 | 0.0 | 0.0 | 0.00 | 0.42 | 0.42 | 96 | 1018.0 | |
| 20260902195840 | 75 | 0.0 | 0.0 | 0.00 | 0.42 | 0.42 | 95 | 1017.6 | |
| 20260902194818 | 74 | 0.0 | 0.0 | 0.00 | 0.42 | 0.42 | 94 | 1016.8 | |
| 20260902193818 | 74 | 0.0 | 1.0 | 0.00 | 0.42 | 0.42 | 95 | 1017.4 | |
| 20260902192818 | 74 | 180 | 2.0 | 3.0 | 0.00 | 0.42 | 0.42 | 95 | 1017.2 |
| 20260902191840 | 74 | 135 | 1.0 | 2.0 | 0.03 | 0.42 | 0.42 | 94 | 1017.4 |
| 20260902190820 | 74 | 90 | 1.0 | 2.0 | 0.42 | 0.42 | 0.42 | 92 | 1017.6 |
| 20260902185820 | 74 | 0.0 | 2.0 | 0.42 | 0.42 | 0.42 | 94 | 1018.7 | |
| 20260902184820 | 74 | 0.0 | 1.0 | 0.42 | 0.42 | 0.42 | 92 | 1019.2 | |
| 20260902183820 | 75 | 158 | 2.0 | 4.0 | 0.42 | 0.42 | 0.42 | 92 | 1019.7 |
| 20260902182819 | 76 | 0.0 | 0.0 | 0.42 | 0.42 | 0.42 | 89 | 1019.0 | |
| 20260902181820 | 78 | 338 | 4.0 | 8.0 | 0.38 | 0.38 | 0.38 | 82 | 1019.7 |
| 20260902180840 | 87 | 315 | 21.0 | 26.0 | 0.00 | 0.00 | 0.00 | 75 | 1020.0 |
| 20260902175820 | 89 | 315 | 3.0 | 4.0 | 0.00 | 0.00 | 0.00 | 75 | 1018.8 |
| 20260902174820 | 89 | 338 | 1.0 | 2.0 | 0.00 | 0.00 | 0.00 | 76 | 1018.7 |
| 20260902173840 | 89 | 338 | 3.0 | 5.0 | 0.00 | 0.00 | 0.00 | 77 | 1018.6 |
| 20260902172820 | 88 | 113 | 2.0 | 3.0 | 0.00 | 0.00 | 0.00 | 74 | 1018.5 |
| 20260902171820 | 88 | 0.0 | 1.0 | 0.00 | 0.00 | 0.00 | 76 | 1018.2 | |
| 20260902170819 | 89 | 68 | 2.0 | 3.0 | 0.00 | 0.00 | 0.00 | 76 | 1018.3 |
| 20260902165819 | 88 | 23 | 2.0 | 4.0 | 0.00 | 0.00 | 0.00 | 77 | 1018.2 |
| 20260902164839 | 87 | 0 | 4.0 | 8.0 | 0.00 | 0.00 | 0.00 | 78 | 1018.1 |
| 20260902163819 | 86 | 135 | 2.0 | 3.0 | 0.00 | 0.00 | 0.00 | 77 | 1018.1 |
| 20260902162839 | 87 | 135 | 2.0 | 3.0 | 0.00 | 0.00 | 0.00 | 75 | 1018.2 |
| 20260902161820 | 87 | 293 | 3.0 | 4.0 | 0.00 | 0.00 | 0.00 | 77 | 1018.1 |
| 20260902160819 | 86 | 45 | 2.0 | 5.0 | 0.00 | 0.00 | 0.00 | 79 | 1018.3 |
| 20260902155820 | 85 | 0 | 3.0 | 4.0 | 0.00 | 0.00 | 0.00 | 80 | 1018.3 |
| 20260902154819 | 86 | 0.0 | 1.0 | 0.00 | 0.00 | 0.00 | 76 | 1018.2 | |
| 20260902153819 | 86 | 45 | 2.0 | 4.0 | 0.00 | 0.00 | 0.00 | 79 | 1018.2 |
| 20260902152819 | 86 | 23 | 3.0 | 6.0 | 0.00 | 0.00 | 0.00 | 81 | 1018.3 |
| 20260902151819 | 85 | 338 | 2.0 | 5.0 | 0.00 | 0.00 | 0.00 | 79 | 1018.3 |
| 20260902150819 | 84 | 180 | 3.0 | 6.0 | 0.00 | 0.00 | 0.00 | 79 | 1018.2 |
| 20260902145819 | 83 | 113 | 4.0 | 9.0 | 0.00 | 0.00 | 0.00 | 80 | 1018.2 |
| 20260902144839 | 83 | 135 | 2.0 | 4.0 | 0.00 | 0.00 | 0.00 | 82 | 1018.3 |
| 20260902143819 | 84 | 68 | 3.0 | 7.0 | 0.00 | 0.00 | 0.00 | 82 | 1018.3 |
| 20260902142819 | 83 | 23 | 1.0 | 3.0 | 0.00 | 0.00 | 0.00 | 84 | 1018.4 |
| 20260902141819 | 81 | 338 | 3.0 | 5.0 | 0.00 | 0.00 | 0.00 | 84 | 1018.2 |
| 20260902140819 | 80 | 23 | 3.0 | 7.0 | 0.00 | 0.00 | 0.00 | 86 | 1018.3 |
| 20260902135819 | 80 | 45 | 2.0 | 4.0 | 0.00 | 0.00 | 0.00 | 87 | 1018.2 |
| 20260902134819 | 79 | 90 | 1.0 | 2.0 | 0.00 | 0.00 | 0.00 | 88 | 1018.1 |
| 20260902133819 | 78 | 68 | 1.0 | 2.0 | 0.00 | 0.00 | 0.00 | 89 | 1018.0 |
| 20260902132819 | 78 | 315 | 2.0 | 5.0 | 0.00 | 0.00 | 0.00 | 89 | 1018.0 |
| 20260902131819 | 77 | 0.0 | 2.0 | 0.00 | 0.00 | 0.00 | 90 | 1017.7 | |
| 20260902130819 | 77 | 0.0 | 1.0 | 0.00 | 0.00 | 0.00 | 91 | 1017.7 | |
| 20260902125819 | 76 | 68 | 2.0 | 6.0 | 0.00 | 0.00 | 0.00 | 92 | 1017.7 |
| 20260902124819 | 76 | 90 | 1.0 | 4.0 | 0.00 | 0.00 | 0.00 | 92 | 1017.7 |
| 20260902123839 | 76 | 293 | 1.0 | 2.0 | 0.00 | 0.00 | 0.00 | 94 | 1017.7 |
| 20260902122819 | 75 | 338 | 2.0 | 4.0 | 0.00 | 0.00 | 0.00 | 95 | 1017.8 |
| 20260902121819 | 75 | 0.0 | 0.0 | 0.00 | 0.00 | 0.00 | 94 | 1017.7 | |
| 20260902120819 | 74 | 45 | 1.0 | 3.0 | 0.00 | 0.00 | 0.00 | 95 | 1017.7 |
| 20260902115819 | 74 | 0 | 1.0 | 3.0 | 0.00 | 0.00 | 0.00 | 95 | 1017.6 |
| 20260902114819 | 73 | 0 | 1.0 | 2.0 | 0.00 | 0.00 | 0.00 | 96 | 1017.7 |
| 20260902113819 | 73 | 0 | 3.0 | 5.0 | 0.00 | 0.00 | 0.00 | 96 | 1017.7 |
| 20260902112819 | 73 | 0.0 | 2.0 | 0.00 | 0.00 | 0.00 | 96 | 1017.7 | |
| 20260902111819 | 73 | 23 | 1.0 | 2.0 | 0.00 | 0.00 | 0.00 | 96 | 1017.5 |
| 20260902110839 | 73 | 23 | 1.0 | 2.0 | 0.00 | 0.00 | 0.00 | 96 | 1017.3 |
| 20260902105839 | 73 | 23 | 1.0 | 2.0 | 0.00 | 0.00 | 0.00 | 96 | 1017.0 |
| 20260902104839 | 73 | 0.0 | 2.0 | 0.00 | 0.00 | 0.00 | 96 | 1017.0 | |
| 20260902103819 | 73 | 0.0 | 2.0 | 0.00 | 0.00 | 0.00 | 96 | 1016.9 | |
| 20260902102819 | 73 | 0.0 | 0.0 | 0.00 | 0.00 | 0.00 | 96 | 1016.9 | |
| 20260902101819 | 72 | 0.0 | 0.0 | 0.00 | 0.00 | 0.00 | 96 | 1017.0 | |
| 20260902100838 | 72 | 0.0 | 0.0 | 0.00 | 0.00 | 0.00 | 96 | 1016.8 | |
| 20260902095818 | 72 | 0.0 | 0.0 | 0.00 | 0.00 | 0.00 | 95 | 1016.9 | |
| 20260902094818 | 72 | 0.0 | 0.0 | 0.00 | 0.00 | 0.00 | 95 | 1016.7 | |
| 20260902093818 | 72 | 0.0 | 0.0 | 0.00 | 0.00 | 0.00 | 95 | 1016.8 | |
| 20260902092839 | 72 | 0.0 | 0.0 | 0.00 | 0.00 | 0.00 | 94 | 1016.7 | |
| 20260902091819 | 72 | 0.0 | 0.0 | 0.00 | 0.00 | 0.00 | 94 | 1016.7 | |
| 20260902090818 | 72 | 0.0 | 0.0 | 0.00 | 0.00 | 0.00 | 94 | 1016.6 | |
| 20260902085819 | 73 | 0.0 | 0.0 | 0.00 | 0.00 | 0.00 | 93 | 1016.7 | |
| 20260902084838 | 73 | 0.0 | 0.0 | 0.00 | 0.00 | 0.00 | 93 | 1016.6 | |
| 20260902083819 | 73 | 0.0 | 0.0 | 0.00 | 0.00 | 0.00 | 93 | 1016.5 | |
| 20260902082819 | 73 | 0.0 | 0.0 | 0.00 | 0.00 | 0.00 | 92 | 1016.6 | |
| 20260902081819 | 73 | 0.0 | 0.0 | 0.00 | 0.00 | 0.00 | 92 | 1016.4 | |
| 20260902080838 | 73 | 0.0 | 0.0 | 0.00 | 0.00 | 0.00 | 92 | 1016.4 | |
| 20260902075818 | 74 | 0.0 | 0.0 | 0.00 | 0.00 | 0.00 | 91 | 1016.4 | |
| 20260902074818 | 74 | 0.0 | 0.0 | 0.00 | 0.00 | 0.00 | 91 | 1016.3 | |
| 20260902073818 | 74 | 0.0 | 0.0 | 0.00 | 0.00 | 0.00 | 91 | 1016.3 | |
| 20260902072820 | 74 | 0.0 | 0.0 | 0.00 | 0.00 | 0.00 | 91 | 1016.1 | |
| 20260902071840 | 74 | 0.0 | 1.0 | 0.00 | 0.00 | 0.00 | 90 | 1016.0 | |
| 20260902070820 | 75 | 0.0 | 0.0 | 0.00 | 0.00 | 0.00 | 90 | 1015.9 | |
| 20260902065820 | 75 | 0.0 | 0.0 | 0.00 | 0.00 | 0.00 | 89 | 1016.0 | |
| 20260902064818 | 75 | 135 | 1.0 | 3.0 | 0.00 | 0.00 | 0.00 | 89 | 1015.8 |
| 20260902063820 | 75 | 0.0 | 0.0 | 0.00 | 0.00 | 0.00 | 88 | 1016.1 | |
| 20260902062820 | 76 | 0.0 | 1.0 | 0.00 | 0.00 | 0.00 | 88 | 1016.4 | |
| 20260902061820 | 76 | 0.0 | 1.0 | 0.00 | 0.00 | 0.00 | 87 | 1016.4 | |
| 20260902060818 | 76 | 135 | 1.0 | 2.0 | 0.00 | 0.00 | 0.00 | 87 | 1016.1 |
| 20260902055820 | 76 | 180 | 4.0 | 7.0 | 0.00 | 0.00 | 0.00 | 87 | 1016.1 |
| 20260902054858 | 77 | 0.0 | 1.0 | 0.00 | 0.00 | 0.00 | 86 | 1016.1 | |
| 20260902053818 | 77 | 135 | 2.0 | 4.0 | 0.00 | 0.00 | 0.00 | 86 | 1016.0 |
| 20260902052818 | 77 | 293 | 1.0 | 5.0 | 0.00 | 0.00 | 0.00 | 87 | 1016.0 |
| 20260902051818 | 77 | 0.0 | 0.0 | 0.00 | 0.00 | 0.00 | 87 | 1015.5 | |
| 20260902050840 | 77 | 0.0 | 0.0 | 0.00 | 0.00 | 0.00 | 86 | 1015.5 | |
| 20260902045818 | 78 | 0.0 | 0.0 | 0.00 | 0.00 | 0.00 | 85 | 1015.5 | |
| 20260902044818 | 78 | 0.0 | 0.0 | 0.00 | 0.00 | 0.00 | 84 | 1015.7 | |
| 20260902043820 | 78 | 135 | 1.0 | 2.0 | 0.00 | 0.00 | 0.00 | 83 | 1015.8 |
| 20260902042820 | 79 | 0.0 | 0.0 | 0.00 | 0.00 | 0.00 | 83 | 1015.9 | |
| 20260902041820 | 79 | 0.0 | 0.0 | 0.00 | 0.00 | 0.00 | 82 | 1015.9 | |
| 20260902040820 | 79 | 135 | 1.0 | 2.0 | 0.00 | 0.00 | 0.00 | 81 | 1015.8 |
| 20260902035819 | 80 | 0.0 | 1.0 | 0.00 | 0.00 | 0.00 | 83 | 1015.9 | |
| 20260902034819 | 80 | 23 | 2.0 | 6.0 | 0.00 | 0.00 | 0.00 | 87 | 1015.7 |
| 20260902033819 | 80 | 0.0 | 0.0 | 0.00 | 0.00 | 0.00 | 89 | 1015.4 | |
| 20260902032819 | 80 | 135 | 1.0 | 2.0 | 0.00 | 0.00 | 0.00 | 89 | 1015.3 |
| 20260902031919 | 80 | 0.0 | 1.0 | 0.00 | 0.00 | 0.00 | 91 | 1015.3 | |
| 20260902030819 | 80 | 0.0 | 0.0 | 0.00 | 0.00 | 0.00 | 90 | 1015.0 | |
| 20260902025819 | 80 | 0.0 | 0.0 | 0.00 | 0.00 | 0.00 | 90 | 1014.8 | |
| 20260902024819 | 81 | 0.0 | 0.0 | 0.00 | 0.00 | 0.00 | 89 | 1014.7 | |
| 20260902023819 | 81 | 0.0 | 0.0 | 0.00 | 0.00 | 0.00 | 89 | 1014.5 | |
| 20260902022819 | 81 | 0.0 | 0.0 | 0.00 | 0.00 | 0.00 | 88 | 1014.4 | |
| 20260902021819 | 82 | 0.0 | 0.0 | 0.00 | 0.00 | 0.00 | 87 | 1014.6 | |
| 20260902020819 | 82 | 0.0 | 0.0 | 0.00 | 0.00 | 0.00 | 87 | 1014.7 | |
| 20260902015839 | 82 | 0.0 | 0.0 | 0.00 | 0.00 | 0.00 | 86 | 1014.5 | |
| 20260902014819 | 82 | 0.0 | 0.0 | 0.00 | 0.00 | 0.00 | 86 | 1014.3 | |
| 20260902013839 | 82 | 180 | 2.0 | 4.0 | 0.00 | 0.00 | 0.00 | 86 | 1013.8 |
| 20260902012819 | 82 | 180 | 1.0 | 2.0 | 0.00 | 0.00 | 0.00 | 85 | 1013.7 |
| 20260902011819 | 83 | 180 | 1.0 | 3.0 | 0.00 | 0.00 | 0.00 | 85 | 1013.9 |
| 20260902010819 | 83 | 180 | 1.0 | 3.0 | 0.00 | 0.00 | 0.00 | 84 | 1014.1 |
| 20260902005819 | 83 | 0.0 | 0.0 | 0.00 | 0.00 | 0.00 | 84 | 1014.1 | |
| 20260902004819 | 83 | 0.0 | 0.0 | 0.00 | 0.00 | 0.00 | 83 | 1014.0 | |
| 20260902003819 | 84 | 0.0 | 0.0 | 0.00 | 0.00 | 0.00 | 83 | 1013.5 | |
| 20260902002839 | 84 | 0.0 | 0.0 | 0.00 | 0.00 | 0.00 | 83 | 1013.0 | |
| 20260902001819 | 83 | 0.0 | 1.0 | 0.00 | 0.00 | 0.00 | 83 | 1012.6 |